Weather History for Washington, NC

Change the Weather History Date:

Thursday, November 10, 2011

  Actual Average (KEWN) Record (KEWN)
Temperature  
Mean Temperature 61 °F 57 °F  
Max Temperature 71 °F 68 °F 82 °F (1948)
Min Temperature 51 °F 45 °F 30 °F (1961)
Degree Days  
Heating Degree Days 4 9  
Month to date heating degree days 78  
Since 1 July heating degree days 195  
Cooling Degree Days 0 1  
Month to date cooling degree days 10  
Year to date cooling degree days 1895  
Growing Degree Days 11 (Base 50)    
Moisture  
Dew Point 50 °F    
Average Humidity 71    
Maximum Humidity 82    
Minimum Humidity 31    
Precipitation  
Precipitation 0.00 in 0.11 in 2.95 in (1990)
Month to date precipitation 1.09  
Year to date precipitation 47.04  
Snow  
Snow 0.00 in - - ()
Month to date snowfall  
Since 1 July snowfall  
Snow Depth -    
Sea Level Pressure  
Sea Level Pressure 29.83 in    
Wind  
Wind Speed 2 mph (NW)    
Max Wind Speed 13 mph    
Max Gust Speed 20 mph    
Visibility 8 miles    
Events      
T = Trace of Precipitation, MM = Missing Value Source: NWS Daily Summary

Daily Weather History Graph

Daily Weather History Graph

Search for Another Location

Airport:

Trip Planner

Search our weather history database for the weather conditions in past years. The results will help you decide how hot, cold, wet, or windy it might be!

Date:

Astronomy

Nov. 10, 2011 Rise Set
Actual Time 6:38 AM EST 5:05 PM EST
Civil Twilight 6:11 AM EST 5:32 PM EST
Nautical Twilight 5:41 AM EST 6:02 PM EST
Astronomical Twilight 5:11 AM EST 6:32 PM EST
Moon 4:53 PM EST (11/10) 6:27 AM EST (11/10)
Length of Visible Light 11h 20m
Length of Day
10h 26m
Full, 100% of the Moon is Illuminated
Nov 10
Full
Nov 10
Full
Nov 18
Last Quarter
Nov 25
New
Dec 2
First Quarter

Hourly Weather History & Observations

Time (EST) Temp. Dew Point Humidity Pressure Visibility Wind Dir Wind Speed Gust Speed Precip Events Conditions
12:15 AM 53.6 °F 48.2 °F 82% 29.96 in 1.8 mi Calm Calm - N/A   Haze
12:35 AM 53.6 °F 48.2 °F 82% 29.95 in 7.0 mi Calm Calm - N/A   Mostly Cloudy
12:55 AM 57.2 °F 51.8 °F 82% 29.94 in 7.0 mi Calm Calm - N/A   Overcast
1:15 AM 57.2 °F 51.8 °F 82% 29.94 in 7.0 mi Calm Calm - N/A   Overcast
1:35 AM 57.2 °F 51.8 °F 82% 29.94 in 7.0 mi Calm Calm - N/A   Overcast
1:55 AM 57.2 °F 51.8 °F 82% 29.93 in 7.0 mi Calm Calm - N/A   Overcast
2:15 AM 57.2 °F 51.8 °F 82% 29.93 in 7.0 mi Calm Calm - N/A   Mostly Cloudy
2:35 AM 57.2 °F 51.8 °F 82% 29.92 in 10.0 mi NNW 3.5 mph - N/A   Overcast
2:55 AM 57.2 °F 51.8 °F 82% 29.92 in 10.0 mi Calm Calm - N/A   Overcast
3:15 AM 57.2 °F 51.8 °F 82% 29.91 in 7.0 mi Calm Calm - N/A   Mostly Cloudy
3:35 AM 57.2 °F 51.8 °F 82% 29.90 in 3.0 mi Calm Calm - N/A   Haze
3:55 AM 57.2 °F 51.8 °F 82% 29.88 in 5.0 mi North 3.5 mph - N/A   Haze
4:15 AM 53.6 °F 46.4 °F 77% 29.88 in 0.5 mi Calm Calm - N/A   Haze
4:35 AM 51.8 °F 46.4 °F 82% 29.88 in 0.5 mi Calm Calm - N/A   Haze
5:15 AM 51.8 °F 46.4 °F 82% 29.88 in 1.2 mi Calm Calm - N/A   Haze
5:35 AM 51.8 °F 46.4 °F 82% 29.88 in 0.2 mi Calm Calm - N/A   Haze
5:55 AM 51.8 °F 46.4 °F 82% 29.88 in 0.2 mi Calm Calm - N/A   Haze
6:15 AM 51.8 °F 46.4 °F 82% 29.88 in 0.8 mi Calm Calm - N/A   Haze
6:35 AM 51.8 °F 46.4 °F 82% 29.87 in 0.5 mi Calm Calm - N/A   Haze
7:15 AM 51.8 °F 46.4 °F 82% - 0.2 mi WNW 4.6 mph - N/A   Haze
7:35 AM 51.8 °F 46.4 °F 82% 29.89 in 1.8 mi WNW 3.5 mph - N/A   Haze
8:35 AM 53.6 °F 48.2 °F 82% 29.88 in 1.0 mi Calm Calm - N/A   Haze
8:55 AM 57.2 °F 51.8 °F 82% 29.88 in 7.0 mi West 3.5 mph - N/A   Mostly Cloudy
9:15 AM 57.2 °F 51.8 °F 82% 29.88 in 10.0 mi Calm Calm - N/A   Scattered Clouds
9:35 AM 57.2 °F 51.8 °F 82% 29.87 in 10.0 mi Calm Calm - N/A   Clear
9:55 AM 60.8 °F 53.6 °F 77% 29.87 in 10.0 mi Calm Calm - N/A   Clear
10:15 AM 62.6 °F 55.4 °F 77% 29.86 in 10.0 mi Calm Calm - N/A   Clear
10:55 AM 66.2 °F 55.4 °F 68% 29.85 in 10.0 mi NW 5.8 mph - N/A   Clear
11:15 AM 68.0 °F 55.4 °F 64% 29.84 in 10.0 mi NW 5.8 mph - N/A   Clear
11:35 AM 69.8 °F 55.4 °F 60% 29.83 in 10.0 mi NW 8.1 mph - N/A   Clear
11:55 AM 71.6 °F 55.4 °F 57% 29.82 in 10.0 mi NW 8.1 mph - N/A   Scattered Clouds
12:15 PM 71.6 °F 55.4 °F 57% 29.80 in 10.0 mi NNW 8.1 mph - N/A   Scattered Clouds
12:35 PM 71.6 °F 53.6 °F 53% 29.79 in 7.0 mi North 8.1 mph - N/A   Scattered Clouds
12:55 PM 69.8 °F 53.6 °F 56% 29.78 in 10.0 mi NNW 4.6 mph - N/A   Scattered Clouds
1:15 PM 71.6 °F 53.6 °F 53% 29.78 in 10.0 mi NNW 6.9 mph - N/A   Scattered Clouds
1:35 PM 71.6 °F 51.8 °F 50% 29.77 in 10.0 mi NNW 4.6 mph - N/A   Scattered Clouds
1:55 PM 71.6 °F 50.0 °F 46% 29.76 in 10.0 mi West 3.5 mph - N/A   Scattered Clouds
2:15 PM 71.6 °F 50.0 °F 46% 29.75 in 10.0 mi West 4.6 mph - N/A   Clear
2:35 PM 71.6 °F 48.2 °F 43% 29.74 in 10.0 mi WNW 4.6 mph - N/A   Clear
2:55 PM 71.6 °F 46.4 °F 41% 29.73 in 10.0 mi Calm Calm - N/A   Clear
3:15 PM 71.6 °F 39.2 °F 31% 29.74 in 10.0 mi NW 6.9 mph - N/A   Clear
3:35 PM 71.6 °F 42.8 °F 35% 29.74 in 10.0 mi NNW 3.5 mph - N/A   Clear
4:15 PM 69.8 °F 46.4 °F 43% 29.74 in 10.0 mi WNW 4.6 mph - N/A   Clear
4:35 PM 68.0 °F 46.4 °F 46% 29.74 in 10.0 mi Calm Calm - N/A   Clear
4:55 PM 64.4 °F 50.0 °F 59% 29.73 in 10.0 mi Calm Calm - N/A   Scattered Clouds
5:15 PM 62.6 °F 51.8 °F 68% 29.73 in 10.0 mi Calm Calm - N/A   Mostly Cloudy
5:35 PM 62.6 °F 51.8 °F 68% 29.73 in 10.0 mi Calm Calm - N/A   Overcast
5:55 PM 62.6 °F 51.8 °F 68% 29.74 in 10.0 mi NW 8.1 mph - N/A   Mostly Cloudy
6:15 PM 62.6 °F 51.8 °F 68% 29.75 in 10.0 mi WNW 10.4 mph - N/A   Scattered Clouds
6:35 PM 60.8 °F 50.0 °F 68% 29.77 in 10.0 mi NW 12.7 mph 19.6 mph N/A   Scattered Clouds
6:55 PM 60.8 °F 51.8 °F 72% 29.78 in 10.0 mi WNW 11.5 mph 19.6 mph N/A   Mostly Cloudy
7:15 PM 57.2 °F 50.0 °F 77% 29.78 in 10.0 mi NW 11.5 mph 16.1 mph N/A   Scattered Clouds
7:55 PM 57.2 °F 51.8 °F 82% 29.78 in 10.0 mi NNW 10.4 mph 17.3 mph N/A   Overcast
8:15 PM 57.2 °F 51.8 °F 82% 29.78 in 10.0 mi NNW 10.4 mph - N/A   Overcast
8:35 PM 57.2 °F 51.8 °F 82% 29.79 in 10.0 mi NW 9.2 mph 18.4 mph N/A   Overcast
8:55 PM 57.2 °F 51.8 °F 82% 29.79 in 10.0 mi NW 9.2 mph 16.1 mph N/A   Overcast
9:15 PM 57.2 °F 51.8 °F 82% 29.80 in 10.0 mi NW 8.1 mph - N/A   Overcast
9:35 PM 53.6 °F 48.2 °F 82% 29.81 in 10.0 mi NW 10.4 mph - N/A   Overcast
9:55 PM 53.6 °F 48.2 °F 82% 29.81 in 10.0 mi NW 6.9 mph - N/A   Overcast
10:15 PM 53.6 °F 48.2 °F 82% 29.82 in 7.0 mi NW 10.4 mph - N/A Rain Rain
10:35 PM 51.8 °F 46.4 °F 82% 29.83 in 4.0 mi NW 9.2 mph 18.4 mph 0.01 in Rain Rain
10:55 PM 51.8 °F 46.4 °F 82% 29.83 in 10.0 mi NNW 8.1 mph - 0.01 in   Overcast
11:15 PM 51.8 °F 46.4 °F 82% 29.85 in 10.0 mi North 18.4 mph 23.0 mph N/A Rain Rain
11:35 PM 50.0 °F 42.8 °F 76% 29.86 in 10.0 mi NNW 11.5 mph - N/A   Overcast
11:55 PM 50.0 °F 42.8 °F 76% 29.87 in 10.0 mi NW 4.6 mph - N/A   Overcast